Regional Weather Roundup
Issued by NWS

Home | Current Version | Previous Version | Graphics & Text | Print | Product List | Glossary On
Versions: 1 2 3 4 5 6 7 8 9 10 11 12 13 14 15 16 17 18 19 20 21 22 23 24 25 26 27 28 29 30 31 32 33 34 35 36 37 38 39 40 41 42 43 44 45 46 47 48 49 50
000
ASUS45 KTFX 051610
RWRMT
MONTANA REGIONAL WEATHER ROUNDUP
NATIONAL WEATHER SERVICE GREAT FALLS MT
900 AM MST FRI FEB 05 2016

NOTE: "FAIR" INDICATES FEW OR NO CLOUDS BELOW 12000 FEET WITH NO
SIGNIFICANT WEATHER AND/OR OBSTRUCTIONS TO VISIBILITY.

MTZ001>007-043-051700-
WEST OF THE DIVIDE

CITY           SKY/WX    TMP DP  RH WIND       PRES   REMARKS
KALISPELL      CLOUDY    32  27  81 W5        30.36S
MISSOULA       CLOUDY    27  25  92 CALM      30.43S FOG
BUTTE          CLOUDY    15  10  80 CALM      30.36S
MULLAN PASS    SNOW      28  24  85 VRB5      30.30F VSB 1/2
ANACONDA         N/A     30  18  59 S6        30.37S WCI  24
DEER LODGE       N/A     25  18  74 SW3       30.37F
HAMILTON         N/A     34  21  60 S13       30.42R WCI  25
LIBBY            N/A     23  21  93 CALM      30.39R
PLAINS           N/A     29  23  78 CALM      30.38F
$$

MTZ008-052>055-051700-
SOUTHWEST MONTANA

CITY           SKY/WX    TMP DP  RH WIND       PRES   REMARKS
BOZEMAN        CLOUDY    17   9  70 S7        30.38F WCI   8
DILLON         CLOUDY    21  14  74 S10       30.38R WCI  10
ENNIS          PTSUNNY   19  12  73 S16G23    30.44F WCI   5
THREE FORKS      N/A     28   2  33 SW3       30.32F
TWIN BRIDGES     N/A     15   6  67 S6        30.34R WCI   6
$$

MTZ009-010-012-014-046-048-049-054-051700-
EAST SLOPES AND CENTRAL MONTANA

CITY           SKY/WX    TMP DP  RH WIND       PRES   REMARKS
CUT BANK       MOCLDY    37  22  54 W22G32    30.09F WCI  26
GREAT FALLS    CLEAR     36  20  52 SW25G31   30.17F WCI  24
MALMSTROM AFB  CLEAR     36  22  57 SW25G31   30.19F WCI  24
HELENA         CLOUDY    35  22  58 W8        30.34R WCI  29
CHOTEAU          N/A     41  21  45 W8G18     30.14S
CONRAD           N/A     40  27  60 SW21      30.11F
$$

MTZ011-013-016-021-045-047-050-051-051700-
NORTH CENTRAL MONTANA

CITY           SKY/WX    TMP DP  RH WIND       PRES   REMARKS
HAVRE          SUNNY     33  22  63 SW22G30   30.11F WCI  21
LEWISTOWN      CLOUDY    28  18  66 SW17      30.18F WCI  16
N BAR RANCH      N/A     23  14  68 CALM      30.19F
CHINOOK          N/A     21  18  86 NE6       30.13F WCI  14
$$

MTZ017>020-022>027-061-062-051700-
NORTHEAST MONTANA

CITY           SKY/WX    TMP DP  RH WIND       PRES   REMARKS
GLASGOW        SUNNY     12   9  87 SE7       30.15F WCI   1
JORDAN           N/A     24  20  84 W7        30.18F WCI  16
SIDNEY         SUNNY     21  18  86 S8        30.18F WCI  12
WOLF POINT     SUNNY     17  14  88 W6        30.19S WCI   9
PLENTYWOOD       N/A     16  12  86 CALM      30.12F
POPLAR           N/A     18  14  86 SW5       30.19F
SCOBEY           N/A     13   4  67 SW3       30.09F
$$

MTZ028>42-056>058-051700-
SOUTHCENTRAL AND SOUTHEAST MONTANA

CITY           SKY/WX    TMP DP  RH WIND       PRES   REMARKS
BAKER          SUNNY     26  21  81 W14       30.20F WCI  14
BILLINGS       CLOUDY    28  14  55 SW16      30.25F WCI  16
LIVINGSTON     CLOUDY    29  12  49 W28G47    30.30S WCI  14
MILES CITY     SUNNY     27  23  85 S3        30.23S
EKALAKA          N/A     26  23  88 W7        30.16S WCI  18
FORSYTH          N/A     30  21  69 SW5       30.24F
LAUREL           N/A     26   7  44 SW12      30.22F WCI  16
ROUNDUP          N/A     31  16  54 CALM      30.12S
$$

REGIONAL REPORTS...DAKOTAS

CITY           SKY/WX    TMP DP  RH WIND       PRES   REMARKS
WILLISTON      SUNNY     18  15  88 S7        30.17F WCI   9
MINOT          PTSUNNY   23  14  68 SW5       30.14S
DICKINSON      MOSUNNY   23  20  88 W16       30.15S WCI  10
BEACH            N/A     23  23 100 W12       30.20F WCI  12
CROSBY           N/A     19  18  93 SW12      30.13F WCI   7
TIOGA            N/A     18  18 100 SW7       30.17F WCI   8
WATFORD CITY     N/A     18  16  93 SW7       30.17F WCI   8
BISMARCK       MOSUNNY   29  20  69 NW9       30.19R WCI  20
GRAND FORKS    MOSUNNY   20  14  77 SW3       30.13S
FARGO          CLOUDY    21  17  84 S10       30.15S WCI  10
BUFFALO SD       N/A     29  23  78 W20       30.14R WCI  16
RAPID CITY     SUNNY     30  24  78 N22       30.21R WCI  17
$$

REGIONAL REPORTS...WYOMING/IDAHO/WASHINGTON

CITY           SKY/WX    TMP DP  RH WIND       PRES   REMARKS
GILLETTE       SUNNY     29  19  66 W16       30.25R WCI  17
SHERIDAN       SUNNY     28  12  50 W7        30.27S WCI  21
BUFFALO WY     SUNNY     27   9  46 W3        30.26R
CODY           SUNNY     32   9  37 W17G29    30.26S WCI  21
YELLOWSTONE LA   N/A      9   5  84 CALM      30.39R
IDAHO FALLS    FOG       15  13  91 N7        30.55R VSB 1   WCI   5
SALMON         CLOUDY    16  12  86 S3        30.52S
BOISE          FOG       30  30 100 CALM      30.53R VSB<1/4
SPOKANE        MOCLDY    36  33  89 SE7       30.36F WCI  30
$$

REGIONAL REPORTS...ALBERTA

CITY           SKY/WX    TMP DP  RH WIND       PRES   REMARKS
EDMONTON       MOCLDY    25  16  68 SW8       29.81F WCI  16
CALGARY        CLOUDY    41  18  38 W14G24    29.90F
LETHBRIDGE     MOCLDY    41  21  45 W37G46    30.00F
MEDICINE HAT   MOCLDY    28  23  80 SW9       30.03F WCI  20
WATERTON GATE    N/A     36  21  55 SW32G54     N/A  WCI  22
CARDSTON         N/A     39  21  48 W16G26      N/A  WCI  30
$$

REGIONAL REPORTS...SASKATCHEWAN

CITY           SKY/WX    TMP DP  RH WIND       PRES   REMARKS
SWIFT CURRENT  CLEAR     25  18  74 SW15      30.00F WCI  12
REGINA         MOSUNNY   12  10  92 S3        30.07S
SASKATOON      MOCLDY     9   5  85 S6        30.02F WCI  -1
CYPRESS HILLS    N/A     32  16  51 W5          N/A
VAL MARIE        N/A     16  14  93 SW3         N/A
ROCKGLEN         N/A     18  14  86 SW10        N/A  WCI   6
ASSINIBOIA       N/A     16  10  79 S7          N/A  WCI   6
$$




USA.gov is the U.S. government's official web portal to all federal, state and local government web resources and services.